Wind_Speed
24 23 23 24 25 25 25 25 25 25 25 24 24 25 25 24 23 23 22 21 20 19 18 17 17 17 18 19 19 20 21 22 23 24 25 26 26 26 26 26 26 26 25 26 26 27 27 27 27 27 27 27 27 27 28 28 27 27 27 27 27 27 28 28 28 30 31 31 31 31 31 31 32 33 33 34 34 34 34 35 36 35 35 35 35
26 26 25 25 25 26 26 26 26 26 26 26 27 29 30 30 28 27 26 25 24 23 22 21 20 20 21 21 21 21 22 23 24 25 27 28 29 29 29 30 30 29 29 29 29 29 29 29 29 30 30 30 30 29 29 29 29 29 29 29 29 29 29 30 30 31 32 33 32 32 33 33 33 34 35 35 35 36 37 38 38 39 39 38 38
28 28 27 26 26 29 30 30 29 28 27 27 28 29 31 32 32 30 29 27 26 25 25 24 24 24 25 25 25 25 25 25 26 27 29 29 30 30 31 32 32 32 32 32 32 32 32 32 32 32 32 32 33 32 32 32 32 32 32 32 32 32 31 31 31 32 32 33 33 33 33 33 34 35 35 35 35 36 37 39 40 41 42 42 41
31 30 30 29 29 31 33 34 34 32 30 28 29 30 31 31 32 32 31 30 30 29 28 27 27 27 27 27 27 26 26 27 27 29 30 31 31 31 31 32 33 33 33 33 33 34 34 34 34 34 35 35 35 35 35 35 35 35 35 35 35 34 33 32 32 32 32 33 34 34 34 34 34 34 35 35 35 36 37 38 39 41 42 43 43
34 34 35 34 34 34 35 36 37 37 34 32 31 32 33 33 33 33 34 33 33 32 31 30 29 28 28 28 27 27 27 28 28 29 31 32 32 32 32 32 33 33 33 33 33 34 35 35 36 36 37 37 37 37 37 37 37 37 37 36 36 35 35 34 32 32 32 32 33 34 34 34 33 33 34 35 34 35 36 37 38 39 40 41 42
39 38 39 40 39 39 38 38 39 39 37 35 33 33 33 34 34 35 36 36 35 34 33 33 32 30 30 30 30 30 30 30 29 30 31 32 33 34 34 33 33 32 33 32 32 33 35 36 37 37 38 38 38 38 39 38 38 38 38 38 38 37 35 34 33 32 32 32 33 33 34 34 33 32 33 34 34 34 34 35 36 37 38 40 40
41 42 43 44 44 44 42 41 40 38 35 35 36 35 35 35 35 36 38 38 38 36 35 35 35 35 34 34 34 34 33 33 32 32 33 34 34 34 35 35 35 34 34 34 33 34 34 36 38 39 39 39 39 39 39 39 39 39 39 39 39 39 37 36 35 34 33 33 33 33 33 32 32 31 31 32 33 33 33 34 34 35 36 38 39
43 44 44 43 44 45 45 44 42 39 37 37 38 38 37 37 36 37 38 39 40 39 37 36 37 37 37 36 36 36 36 36 36 37 37 36 36 36 36 37 37 37 37 36 36 36 35 36 37 39 41 41 41 41 40 40 40 40 41 41 41 41 40 38 37 36 36 35 34 34 33 31 30 29 30 32 33 33 34 35 35 35 36 37 38
47 48 47 46 45 43 43 42 41 39 38 39 40 40 40 39 39 39 39 40 41 41 39 38 39 40 39 37 37 38 38 38 40 41 40 39 37 37 37 38 38 38 38 39 40 39 39 38 38 39 42 43 44 43 43 42 42 42 42 43 43 43 42 40 39 38 37 36 35 34 34 32 31 31 32 33 34 34 35 36 37 37 37 38 39
51 52 52 51 50 48 46 44 42 41 40 41 43 43 43 42 42 41 41 42 43 43 42 41 41 42 41 40 39 39 39 40 41 43 43 42 40 39 39 39 39 39 40 41 43 43 43 43 41 41 42 44 46 46 45 45 44 44 44 45 46 45 43 42 40 39 38 37 36 35 35 35 34 34 34 35 37 37 37 37 38 38 38 39 39
52 53 53 53 53 53 52 51 49 47 46 45 46 46 46 45 45 44 44 44 45 46 46 45 45 44 44 43 43 43 42 42 43 44 45 44 44 43 43 43 43 43 42 43 43 43 43 44 45 44 44 45 46 47 48 47 46 46 46 46 47 47 45 43 41 40 39 38 37 37 37 37 37 37 37 37 39 41 41 40 40 40 41 41 41
52 53 53 53 53 54 55 54 54 53 52 51 51 51 50 49 49 49 49 49 49 48 48 48 48 47 46 45 45 45 45 45 44 45 46 46 47 46 45 44 45 45 44 43 43 43 42 43 45 46 47 46 47 48 49 49 48 47 47 47 48 48 48 46 43 42 42 41 40 40 40 40 40 40 41 40 40 42 43 44 44 44 45 45 46
56 55 55 55 55 55 55 56 56 56 56 56 56 56 55 55 54 53 53 54 53 52 50 49 49 49 48 48 48 47 47 47 47 47 47 49 50 50 47 46 46 46 46 45 44 45 45 44 45 46 48 48 47 48 49 50 50 49 48 48 48 49 50 49 47 45 45 44 44 43 44 44 45 44 44 44 44 44 45 46 47 48 49 50 50
58 58 58 58 59 59 58 59 59 59 59 59 58 58 58 58 58 57 57 57 57 56 54 52 51 50 51 51 51 50 49 49 49 49 50 52 53 53 51 49 48 48 47 47 47 46 46 46 46 47 49 49 49 48 48 49 50 50 50 49 49 50 51 52 51 50 48 48 47 48 48 49 49 49 49 49 49 49 48 48 49 50 51 52 53
58 59 60 60 60 61 61 61 61 60 60 60 59 59 59 59 59 59 58 58 58 58 57 56 54 54 53 54 54 52 50 50 50 51 53 53 53 52 52 50 49 48 47 47 47 46 46 46 47 48 49 50 50 50 51 51 50 50 50 50 50 51 51 52 52 52 50 50 50 51 52 53 54 54 54 53 53 53 53 53 52 52 53 54 54
56 57 58 59 59 60 60 60 60 60 60 60 59 59 58 58 58 58 58 58 58 58 58 58 57 57 57 56 56 54 53 52 51 52 54 53 52 52 52 51 51 50 49 49 49 48 47 47 49 50 50 50 49 49 51 53 53 52 51 50 50 51 52 52 52 52 53 54 54 55 56 57 58 58 58 58 58 58 58 57 57 56 56 56 57
55 55 56 56 57 57 58 58 58 58 58 58 58 58 57 57 57 57 57 57 57 57 58 58 58 59 59 58 58 57 55 54 53 54 55 54 53 53 53 53 53 53 52 52 51 49 48 48 49 50 49 49 50 50 50 52 53 53 53 53 52 52 53 53 54 55 56 56 56 56 57 59 60 61 62 62 62 63 63 61 61 61 61 60 60
54 54 54 54 55 55 56 56 57 57 57 57 56 56 56 55 55 56 56 57 57 57 58 58 58 58 59 58 58 57 56 56 56 55 54 52 51 51 51 52 53 53 53 53 52 51 50 50 50 51 50 49 50 52 52 51 52 52 53 54 55 56 56 57 57 58 58 58 58 58 59 60 62 64 65 66 66 66 65 64 64 64 63 63 63
53 53 53 53 53 53 53 54 54 54 55 55 55 55 54 54 54 54 55 55 56 56 56 57 57 57 56 56 57 57 57 57 56 55 54 53 54 53 53 53 54 55 56 55 54 54 55 54 54 54 53 51 51 53 54 53 52 51 51 52 54 56 58 60 61 61 62 62 62 62 62 62 64 65 66 67 67 66 66 65 66 67 66 65 65
53 52 52 52 52 52 52 52 52 52 53 53 53 53 53 53 53 53 54 54 54 54 55 55 55 55 55 55 55 56 56 55 54 54 54 56 57 57 56 55 56 57 58 58 58 58 58 57 56 55 54 53 53 54 55 55 54 52 51 51 51 53 55 56 58 60 61 62 62 63 63 63 64 65 66 67 66 66 67 68 69 69 69 68 69
51 51 52 52 52 52 52 52 52 52 52 53 53 53 53 53 53 53 52 52 52 52 53 53 53 53 53 54 54 54 53 51 50 50 52 53 54 55 55 55 56 56 57 57 58 58 58 57 56 55 54 52 51 53 55 55 54 53 52 51 50 50 50 51 53 55 57 58 60 62 63 63 64 65 66 67 68 69 69 69 70 70 71 72 72
50 50 51 51 51 52 52 53 53 53 53 53 54 53 53 53 53 52 52 51 50 50 50 51 51 51 51 51 51 50 49 49 49 49 50 51 52 53 54 55 55 55 56 56 57 58 58 58 58 58 56 54 52 52 53 55 56 56 55 55 54 55 56 56 57 57 56 57 59 60 62 63 64 65 67 68 69 69 69 69 70 72 73 74 75
50 49 50 50 51 51 52 53 53 53 54 54 54 53 53 52 52 52 52 50 49 49 49 49 49 49 49 49 49 48 48 48 48 49 49 49 50 51 52 52 53 53 54 54 55 55 56 57 57 58 58 57 56 54 53 55 57 59 59 60 61 62 61 60 60 60 59 59 59 59 60 62 64 65 66 67 67 68 70 72 73 75 75 75 76
51 50 50 50 50 50 51 52 52 52 53 53 53 52 52 51 51 52 51 51 49 48 48 48 48 47 46 46 45 45 45 46 46 46 46 45 46 46 46 46 47 47 48 49 50 51 52 53 53 54 55 56 57 56 55 54 55 56 58 59 59 59 59 58 58 59 59 58 58 59 60 61 63 64 65 67 70 72 74 75 75 75 75 75 76
51 50 50 50 50 49 50 51 51 52 52 52 52 51 51 51 51 51 51 50 49 48 47 46 44 42 41 40 41 41 42 43 43 42 41 40 39 39 40 42 43 45 46 48 49 50 51 52 53 53 54 55 55 55 54 53 53 54 55 56 57 57 57 57 56 56 57 57 58 59 60 62 64 67 70 72 74 75 76 75 75 75 76 77 77
51 51 51 50 50 50 50 52 52 52 52 52 52 53 53 52 52 51 51 50 48 48 46 43 40 39 39 40 40 40 40 40 38 36 35 35 36 38 39 41 43 45 47 49 50 51 51 51 51 52 53 54 54 54 52 52 52 53 54 55 57 57 57 57 57 58 59 60 61 62 64 67 70 72 73 74 74 75 75 76 77 77 76 74 71
53 53 53 53 52 52 53 55 54 53 54 54 54 54 54 53 53 52 51 49 47 44 41 37 36 37 38 38 38 38 37 34 33 32 33 35 37 39 41 43 46 48 49 50 50 50 50 49 49 50 50 51 53 53 54 53 52 52 54 56 57 58 59 60 60 61 62 63 64 66 68 70 71 72 73 73 74 75 76 75 73 70 67 64 61
54 54 55 54 54 55 56 56 55 54 54 53 52 51 50 50 49 47 45 45 42 35 32 31 33 34 35 36 35 34 32 30 30 31 33 35 37 40 42 45 47 48 48 48 48 48 48 48 48 48 48 48 49 50 53 54 54 54 55 57 59 60 61 62 62 63 64 65 66 67 69 70 71 72 73 73 72 71 69 66 63 60 58 56 54
53 54 54 54 54 54 53 52 50 49 47 45 43 42 42 41 39 36 35 37 35 31 30 32 33 34 36 36 34 30 29 29 30 31 33 35 38 40 43 44 45 45 45 46 46 47 47 48 48 48 48 47 47 48 50 53 55 56 57 58 59 59 60 61 62 62 63 64 65 67 68 69 69 68 66 64 61 59 58 56 54 53 51 50 48
53 52 51 49 48 45 43 42 40 38 35 33 32 32 32 31 30 29 29 29 30 33 35 36 35 36 35 32 29 28 28 28 30 32 34 36 38 40 42 43 43 43 44 44 44 45 46 46 47 47 48 48 49 49 50 52 54 56 57 57 58 58 58 59 60 61 62 63 63 63 62 60 58 56 54 53 52 51 50 49 47 47 46 46 46
47 45 41 38 35 34 32 31 29 26 25 24 25 26 26 26 26 27 27 27 27 30 33 35 36 35 32 28 26 26 27 27 30 32 34 36 38 39 40 40 40 40 40 40 41 42 43 44 45 46 47 48 49 50 51 52 53 54 55 55 55 55 56 57 57 58 57 56 55 53 51 49 47 47 46 46 45 44 44 44 44 44 46 46 46
35 32 30 28 27 26 25 22 19 19 20 21 22 23 22 21 23 26 27 26 25 27 29 30 30 29 27 26 25 25 26 28 30 32 34 36 36 36 36 35 36 36 37 38 40 41 43 44 45 46 47 47 48 48 49 50 50 50 50 50 51 51 52 52 52 52 50 49 47 46 44 42 41 41 41 41 41 42 43 44 44 45 46 45 44
26 25 24 24 24 24 20 16 16 18 19 20 20 20 19 17 19 24 26 24 23 24 25 25 25 24 24 24 23 24 26 28 30 31 32 31 31 31 31 32 33 35 36 38 40 42 43 45 46 48 48 48 48 48 48 48 48 47 47 48 48 48 48 48 47 46 44 43 41 40 39 39 39 39 40 40 41 42 43 44 44 44 44 43 42
23 23 23 23 23 20 17 16 16 19 20 19 19 20 20 20 20 22 23 22 21 22 22 23 22 21 21 21 22 24 25 26 26 27 26 26 27 28 29 30 32 34 36 38 40 41 43 44 46 47 48 48 48 47 47 47 46 45 44 44 43 42 42 41 39 37 36 36 36 36 37 38 38 38 38 39 39 40 41 41 42 41 41 41 40
22 21 21 21 19 16 16 17 18 18 19 19 19 21 22 22 21 21 22 22 21 20 20 19 18 19 19 20 21 22 21 21 22 22 23 24 25 26 28 30 32 34 36 37 38 40 42 43 44 45 46 46 45 44 43 42 40 38 36 35 34 34 33 32 30 30 31 32 33 33 34 34 33 33 34 34 35 36 36 36 37 37 37 38 38
19 20 20 20 20 19 20 20 19 19 20 20 21 22 22 21 20 20 20 19 18 17 16 16 17 17 17 17 17 17 17 18 19 20 21 23 24 26 28 30 31 33 34 35 36 38 39 40 41 42 42 41 40 38 36 34 32 30 29 28 27 27 26 26 26 27 28 28 28 28 28 28 28 28 29 29 30 31 31 32 32 33 34 35 36
21 22 22 23 24 23 21 20 20 20 21 20 20 20 20 19 18 17 16 15 15 14 14 14 13 13 13 13 14 14 16 17 19 20 21 23 25 26 27 28 29 31 32 33 35 36 37 38 38 38 37 35 33 30 27 25 23 22 22 22 22 22 23 24 24 24 23 22 22 23 24 25 26 26 26 26 27 29 30 31 31 31 32 33 34
25 25 26 27 25 21 19 20 21 20 19 19 18 18 17 16 15 14 14 13 12 11 10 10 10 10 10 11 13 14 15 17 18 19 21 22 23 24 25 26 28 30 31 32 34 35 35 35 35 34 33 30 26 22 19 17 17 17 18 19 20 20 21 21 20 18 17 18 20 21 23 24 26 26 26 27 27 28 29 28 28 27 27 28 30
26 26 27 27 24 20 19 20 20 19 19 18 17 16 15 14 13 12 11 10 9 8 8 8 8 9 10 11 13 14 16 16 17 18 19 20 21 23 24 26 27 29 30 32 33 34 34 33 32 32 29 25 19 15 13 13 13 14 16 17 17 17 17 15 14 14 16 18 19 21 23 24 25 26 26 25 24 23 22 21 21 22 22 24 25
25 24 25 25 23 20 18 18 18 17 17 16 15 14 14 13 12 10 8 8 7 8 7 7 8 8 10 12 13 14 14 15 15 16 17 19 20 22 24 26 27 28 30 32 33 34 33 31 31 30 26 20 14 11 10 11 11 12 13 14 14 13 12 11 12 14 16 17 19 21 23 23 22 21 20 18 17 17 17 17 17 17 18 19 21
23 22 22 22 21 19 16 15 15 15 14 14 14 15 13 11 9 8 7 7 7 7 7 7 8 9 11 12 12 12 12 12 13 14 16 18 20 22 24 26 27 28 30 32 34 34 33 31 29 27 22 16 11 9 9 9 10 11 12 11 12 12 11 10 12 14 16 18 20 21 19 17 15 13 12 12 13 14 14 15 14 12 11 11 14
22 22 21 21 20 19 18 17 16 15 15 15 15 14 11 10 8 8 8 8 8 8 7 7 8 9 10 10 9 8 9 10 12 14 16 18 20 22 24 26 27 29 30 32 34 35 33 30 28 25 19 13 10 9 9 9 10 11 11 10 10 11 9 10 13 15 17 19 19 16 13 10 9 9 9 9 9 10 12 13 12 9 7 5 5
20 20 20 19 19 19 19 18 17 17 17 16 14 12 10 9 9 9 9 9 8 7 6 6 7 8 8 6 5 6 8 10 13 15 17 19 21 23 25 27 28 30 31 33 35 35 34 31 29 25 17 11 9 9 9 10 11 10 9 7 7 7 7 11 13 15 18 19 15 10 7 6 7 8 8 7 6 7 9 10 10 8 6 3 2
19 19 18 18 18 18 18 18 18 18 16 14 12 11 10 10 10 10 10 9 7 6 6 8 8 8 5 3 4 6 9 12 15 17 19 20 22 23 25 27 29 30 32 33 35 36 35 33 31 25 17 11 9 9 9 10 10 8 7 7 7 6 8 11 14 17 19 15 9 5 5 5 6 6 5 4 3 3 4 6 7 7 6 5 5
20 19 19 18 18 17 18 18 18 16 14 13 12 12 11 11 11 11 11 9 7 7 9 10 9 6 4 4 5 8 10 13 16 18 20 22 23 25 26 27 29 31 32 33 35 36 36 35 32 26 19 12 9 8 8 8 8 8 9 9 7 7 9 12 15 17 15 9 3 2 2 2 2 2 1 3 5 4 3 5 5 5 6 7 8
19 19 19 18 18 18 18 17 16 15 14 13 13 13 13 13 13 12 11 9 9 10 11 10 7 5 4 5 6 8 10 13 16 19 21 23 24 26 27 28 29 31 32 33 35 36 37 35 33 28 20 12 7 7 8 8 8 8 9 8 8 8 10 12 13 12 6 1 3 2 2 3 3 2 5 8 10 10 10 11 12 12 12 12 13
16 16 16 16 16 16 15 15 14 14 14 14 14 14 14 14 14 13 11 10 11 11 11 9 7 6 6 6 6 8 10 12 15 18 21 23 25 26 28 29 30 31 32 33 34 36 37 36 34 31 23 13 7 6 8 9 9 7 7 7 8 8 8 9 9 5 3 7 7 7 8 8 7 5 7 10 12 12 12 13 14 14 14 13 13
11 11 12 12 13 13 14 14 15 15 15 15 15 15 15 15 15 13 12 12 12 12 11 10 8 8 7 7 7 8 10 12 14 17 19 22 24 27 29 30 31 31 32 33 34 35 36 36 35 33 27 16 7 5 7 9 8 6 5 7 7 6 5 5 3 3 9 11 11 11 11 10 10 9 10 13 15 15 14 13 14 13 12 11 10
8 9 10 11 12 13 14 14 15 15 16 16 16 16 16 16 15 14 13 13 13 12 12 11 10 9 8 7 7 8 10 12 13 16 18 21 23 26 28 30 31 32 32 33 34 34 35 36 36 35 30 21 10 5 6 7 6 5 6 6 6 5 3 1 4 10 13 13 12 12 11 11 11 11 12 14 15 15 14 13 13 12 11 9 8
7 7 9 10 11 12 13 14 14 15 16 16 17 17 16 16 15 14 14 14 14 13 13 12 11 10 9 8 7 8 10 11 13 15 17 19 22 25 27 30 31 32 33 33 33 33 34 35 35 35 34 27 16 7 5 5 4 5 6 6 7 6 4 4 9 13 13 13 12 12 12 11 11 10 9 9 9 9 8 7 7 7 8 8 8
6 6 7 9 10 11 11 12 13 14 15 15 16 16 15 15 15 15 15 15 15 15 14 14 13 11 10 9 8 8 10 11 12 14 16 18 20 23 25 28 31 32 32 33 33 33 33 34 35 35 34 31 23 13 6 5 5 6 7 8 8 7 5 8 12 14 12 11 11 11 11 12 11 10 9 8 7 6 6 6 5 5 5 5 5
Wind_Direction
254 256 260 264 266 268 269 270 270 269 267 264 264 265 266 267 266 265 263 263 263 262 263 265 266 267 268 268 269 270 271 271 269 267 265 264 262 262 263 264 265 266 266 266 265 265 264 263 263 263 262 261 261 261 261 262 262 262 262 262 262 263 264 263 263 264 265 263 263 264 265 265 265 267 268 270 271 271 271 270 270 270 269 270 271
252 255 257 262 266 268 268 268 268 268 267 264 264 265 266 268 268 267 266 264 263 263 262 262 264 267 270 271 271 273 276 278 277 276 273 271 269 267 265 264 264 264 264 266 267 268 268 268 268 268 268 268 267 267 266 266 267 267 268 268 267 267 267 267 267 267 268 267 266 265 265 266 266 266 267 268 270 271 272 272 272 272 271 270 270
255 256 258 260 262 264 265 265 264 264 263 262 262 263 264 266 267 267 266 264 264 265 264 263 264 266 268 270 271 273 274 277 279 280 279 278 277 275 273 270 268 267 266 266 266 266 267 267 268 268 269 270 270 270 270 269 269 269 270 270 271 270 269 269 268 267 267 268 268 267 267 267 267 267 267 267 267 267 268 269 271 272 272 272 272
258 259 262 261 258 258 259 261 260 260 260 261 262 264 265 266 268 269 268 267 268 268 266 265 265 264 266 268 270 272 273 274 275 277 279 280 280 280 278 276 274 273 272 271 270 269 268 268 268 268 268 268 269 269 270 270 270 270 270 270 270 271 270 269 267 266 265 265 266 267 268 268 268 268 268 268 268 267 267 267 268 268 270 271 272
259 260 263 261 258 256 255 256 257 257 258 261 264 265 266 267 270 273 272 271 270 270 268 267 265 263 264 266 267 269 274 275 274 274 276 278 280 280 279 278 276 274 274 275 275 274 273 272 271 270 269 269 268 268 268 269 269 269 269 269 268 268 268 267 265 264 262 262 263 265 266 267 267 268 268 269 269 270 270 270 270 270 270 270 270
258 258 260 259 257 256 254 255 255 255 255 257 261 265 266 268 270 272 273 272 270 269 268 267 266 265 266 268 268 270 273 275 275 275 275 276 277 277 277 276 274 273 272 273 274 275 275 275 274 273 272 271 270 270 269 268 268 268 267 266 265 263 262 260 260 259 259 259 260 261 263 264 266 267 268 269 270 271 272 273 274 274 274 274 273
258 255 254 256 256 254 254 254 252 251 254 256 259 263 266 268 269 269 269 270 269 268 268 268 269 269 269 270 270 271 273 274 275 275 276 276 275 273 273 273 273 272 271 271 271 272 273 274 275 274 272 271 270 269 269 269 268 268 267 265 264 261 257 254 253 254 254 255 257 258 258 259 261 263 266 269 271 272 273 274 276 278 279 279 279
254 250 249 252 252 250 252 253 252 252 257 261 261 262 264 265 265 265 266 267 268 268 268 269 271 271 271 270 269 270 273 275 275 275 275 276 274 272 270 270 271 271 271 271 271 271 271 272 274 274 272 271 269 267 266 266 266 266 266 265 263 260 257 252 250 249 249 251 253 255 256 255 256 259 262 267 269 272 274 275 276 278 280 281 282
252 252 252 254 254 252 252 254 252 253 257 261 262 263 264 264 264 264 266 268 268 268 269 270 271 271 272 271 270 271 274 276 276 276 276 275 273 271 270 269 269 269 270 271 271 272 271 272 273 273 272 270 269 267 265 265 265 264 264 263 261 259 255 252 250 249 248 248 248 249 252 254 257 259 262 264 266 269 272 275 276 277 279 280 282
254 255 255 257 258 258 258 257 255 255 257 258 260 262 263 263 263 264 267 270 271 270 270 270 270 272 273 273 273 274 275 277 278 278 278 277 275 273 271 270 269 269 270 272 272 273 273 273 274 273 272 270 268 266 265 264 264 264 263 261 259 256 253 251 251 251 250 249 248 248 250 254 258 261 263 265 267 268 269 272 275 277 279 280 281
254 255 255 256 258 259 260 259 260 261 261 261 261 262 263 262 262 262 264 268 271 272 271 271 271 271 273 274 275 276 277 278 278 279 279 279 278 275 274 273 272 271 272 273 273 274 274 274 274 273 271 270 268 266 265 264 264 264 263 261 259 255 253 252 253 253 253 252 250 251 253 256 259 261 263 265 268 269 270 271 273 275 278 280 281
253 253 254 255 257 258 259 260 262 264 265 265 264 264 265 264 263 262 262 265 268 270 270 269 269 270 272 274 276 277 278 277 277 278 278 278 277 277 276 276 274 273 274 274 273 273 274 275 275 273 270 269 269 267 265 264 264 264 264 263 260 256 253 253 254 254 255 255 255 255 256 258 260 261 263 264 267 269 272 273 274 275 276 279 281
255 255 255 256 257 259 260 261 263 264 265 266 266 266 266 266 266 265 264 265 267 268 269 268 267 267 269 271 273 275 277 276 276 276 276 275 275 275 276 277 276 276 276 275 273 272 273 274 274 273 271 269 269 268 267 265 263 263 263 263 262 259 256 255 256 256 256 257 258 258 259 260 262 263 264 265 266 268 270 272 274 276 277 278 280
258 258 258 258 259 261 263 264 264 265 266 267 268 267 267 267 267 267 267 267 268 268 268 267 267 267 269 270 271 272 273 273 274 275 275 274 274 275 276 277 277 277 277 276 274 272 273 273 273 273 271 269 268 268 267 266 264 263 263 263 263 262 259 258 259 260 260 260 261 261 261 262 264 265 266 266 267 268 269 270 272 275 277 278 280
259 259 260 261 261 262 264 265 266 267 267 268 269 269 268 268 268 268 268 268 268 268 268 268 268 270 271 272 272 272 271 271 272 273 273 273 274 276 276 276 276 276 276 276 275 274 273 272 272 273 271 267 267 268 267 266 265 264 263 263 263 263 262 262 262 263 265 265 266 265 265 265 265 266 267 267 268 268 269 269 271 273 275 277 278
259 260 261 261 262 262 263 264 265 266 266 267 267 268 268 268 268 268 268 268 268 268 268 269 269 271 272 273 273 273 273 273 272 273 273 274 275 276 276 275 274 274 274 275 276 275 274 273 274 275 273 269 267 268 268 266 265 265 264 263 264 264 264 264 265 266 267 268 269 269 268 266 266 266 267 268 269 269 270 270 271 272 274 276 276
260 260 260 261 261 262 262 263 263 263 264 265 265 266 266 266 266 266 266 265 266 267 268 269 270 271 272 272 273 273 274 274 275 275 275 275 275 274 273 273 273 274 275 275 275 275 274 274 274 276 276 272 268 268 269 268 266 266 265 265 265 265 265 266 266 267 268 269 270 271 271 268 267 267 267 268 269 270 270 271 272 273 274 276 277
260 260 261 261 261 261 261 262 262 262 263 263 264 264 264 264 264 264 264 263 263 264 265 266 267 268 269 270 271 273 274 274 275 276 276 275 274 273 273 273 273 274 275 274 273 274 274 274 274 276 276 275 271 270 271 271 269 268 267 266 266 266 266 266 266 267 268 269 270 271 271 270 268 267 267 267 268 269 270 271 272 274 275 277 277
261 261 261 261 261 262 262 262 261 262 262 263 263 263 263 263 263 262 262 262 262 262 262 263 264 265 267 269 270 270 272 273 274 275 275 275 275 275 275 275 275 274 274 274 274 276 277 277 276 275 276 275 274 272 272 272 271 270 268 267 266 266 266 266 266 266 267 268 269 269 269 269 267 266 265 266 268 270 271 272 274 275 276 277 277
261 261 261 261 261 262 262 262 262 262 262 263 263 263 263 263 263 262 262 262 262 262 262 263 263 264 265 266 268 269 270 271 271 272 272 272 273 274 275 275 274 274 274 274 275 277 279 280 279 277 276 276 275 273 272 273 272 270 268 267 267 267 267 267 267 267 267 267 267 267 267 266 266 265 265 265 268 270 273 275 276 277 277 277 277
260 260 260 261 261 261 262 262 263 263 263 263 263 263 263 264 264 264 263 263 263 263 263 263 264 264 264 265 266 267 268 269 269 269 270 270 271 273 274 274 275 274 275 275 276 277 278 279 279 279 278 277 274 272 271 270 269 267 266 266 265 266 268 270 271 271 270 269 268 267 266 266 265 265 266 267 269 271 273 275 276 277 278 278 278
260 260 260 260 260 261 261 262 262 263 263 263 263 263 264 264 264 264 264 264 264 264 264 264 264 264 264 265 265 266 268 269 270 270 270 271 272 273 274 275 275 276 276 276 276 277 277 277 278 278 278 277 275 273 271 268 265 264 264 264 265 268 270 272 273 273 272 270 269 268 268 267 268 268 268 269 271 272 274 275 275 276 277 278 278
261 261 261 261 261 261 261 261 261 261 261 261 262 262 263 263 263 263 263 263 263 263 263 264 264 265 265 266 266 268 269 269 270 272 273 273 273 273 274 275 275 276 277 277 278 278 278 278 278 278 278 276 275 273 271 269 266 264 264 265 267 270 272 273 272 271 271 270 269 268 268 268 268 268 269 270 271 272 273 274 275 276 276 276 276
263 262 262 262 261 260 260 260 260 260 260 260 261 261 261 261 261 260 260 260 261 262 262 262 263 264 264 264 264 265 267 268 270 271 271 271 272 273 274 276 277 278 280 280 281 281 281 280 280 279 278 277 275 273 271 269 267 266 266 266 268 269 269 270 269 268 268 268 268 267 268 268 268 269 270 271 271 272 273 274 275 275 275 275 275
263 263 262 262 261 261 260 261 261 261 261 261 261 261 260 260 259 259 259 259 260 260 261 262 263 262 260 260 261 263 265 267 267 267 268 269 271 274 276 278 280 282 283 283 283 282 281 280 279 278 276 274 272 270 268 266 265 265 266 266 267 267 267 266 266 266 266 267 267 268 268 269 269 270 270 271 272 272 273 274 274 275 275 276 276
264 264 263 263 263 262 262 262 262 262 263 263 262 261 261 261 260 260 259 260 260 261 262 261 258 255 254 256 260 262 262 262 261 262 266 269 272 276 279 282 283 283 282 281 279 279 278 278 277 276 274 272 268 265 262 261 261 263 264 265 265 265 265 266 266 267 267 268 269 269 270 270 270 270 271 272 273 274 274 275 275 276 276 275 275
265 265 265 265 265 265 265 264 264 264 265 264 263 264 264 263 263 262 262 262 261 261 261 256 249 248 251 255 256 255 255 256 259 264 269 272 275 278 280 280 280 279 278 278 278 278 278 279 279 278 277 274 270 264 259 259 261 262 263 264 264 264 264 265 266 267 268 269 269 269 270 270 271 272 273 274 274 275 275 276 276 275 274 273 272
265 266 266 266 266 265 265 265 266 266 266 267 267 268 267 266 266 265 263 262 259 254 253 250 246 246 252 254 250 248 251 258 265 270 272 274 276 276 276 277 278 279 279 280 281 282 282 282 283 282 280 279 276 270 264 261 261 263 264 265 265 265 265 266 267 268 268 268 269 270 271 272 273 274 275 275 275 275 274 274 273 272 271 270 269
265 265 265 265 265 265 266 267 267 268 268 269 269 269 267 267 265 260 257 258 253 241 235 239 243 246 249 247 245 249 257 263 268 271 272 273 275 276 277 279 281 283 284 284 284 284 284 284 283 283 281 279 277 274 269 265 264 266 268 269 269 268 268 268 268 269 270 271 272 273 274 275 275 275 274 274 272 271 270 270 269 269 268 268 268
263 263 263 264 265 265 266 267 267 268 267 265 262 260 260 259 254 246 243 242 236 227 225 229 236 242 244 244 247 254 260 264 268 272 274 275 277 279 281 283 284 286 286 286 286 285 285 284 283 282 280 279 278 276 274 271 270 271 272 272 271 271 271 271 272 273 274 275 276 276 276 275 274 273 271 270 269 268 268 267 267 267 267 268 268
262 261 261 262 261 261 262 263 262 258 253 249 247 247 247 244 239 234 229 222 219 221 224 228 234 239 243 247 253 258 262 268 273 275 278 279 281 282 284 285 287 287 288 288 288 288 288 288 287 285 284 283 281 279 278 276 275 275 275 275 275 275 275 276 276 276 277 277 277 276 275 274 272 271 270 268 267 266 265 265 265 266 268 269 269
258 256 255 252 250 251 253 253 248 241 238 238 238 236 233 232 230 223 214 210 215 220 223 228 236 241 245 251 258 264 270 275 277 279 280 281 282 284 286 287 289 292 293 294 295 295 294 293 292 290 289 287 285 284 282 280 279 279 279 278 278 277 277 276 277 277 277 277 276 275 275 273 272 270 268 267 266 265 265 266 267 268 269 270 269
249 246 244 241 240 242 242 236 231 232 235 234 230 222 217 218 218 211 206 210 220 226 229 235 242 245 248 255 264 271 275 277 279 279 281 282 284 287 290 293 295 297 298 297 296 295 294 292 291 291 290 289 288 286 285 284 282 281 280 278 277 276 275 276 276 276 276 276 275 274 274 272 270 269 268 267 267 268 268 269 270 270 270 270 269
241 240 236 233 232 231 226 222 223 225 225 223 217 210 205 205 206 205 208 217 224 229 234 239 242 247 255 264 270 273 275 276 277 278 281 285 289 292 294 295 296 295 294 294 293 292 291 290 289 289 288 288 287 285 284 282 281 279 278 276 274 273 273 273 273 274 274 274 273 272 271 270 270 270 270 270 270 270 270 270 270 270 269 268 267
234 227 220 215 211 206 204 209 216 218 215 211 207 200 196 198 201 204 210 216 220 225 232 240 247 256 263 266 268 269 271 273 277 281 285 288 290 292 293 294 294 294 294 294 294 294 293 292 291 290 288 287 286 284 283 282 281 279 276 273 271 270 269 269 271 273 274 274 273 272 271 271 271 271 271 271 271 271 271 270 269 268 266 265 264
207 199 194 187 180 182 192 201 207 208 204 199 197 194 192 194 199 204 208 214 221 230 239 246 252 255 257 259 262 266 271 276 280 283 286 288 290 292 294 295 296 297 297 298 299 300 299 297 294 292 290 289 288 286 285 283 280 277 273 271 268 266 266 268 272 275 275 274 274 274 274 274 275 274 274 274 274 274 273 272 270 269 268 266 264
179 176 172 169 171 180 190 196 196 197 196 194 193 194 196 198 202 206 212 220 230 236 240 241 243 245 249 255 261 267 273 277 281 284 288 291 293 295 296 298 301 302 304 305 306 307 305 302 298 296 295 294 292 289 285 280 277 273 271 268 265 264 267 272 274 274 274 274 276 277 278 280 280 280 279 279 279 278 277 276 274 272 270 268 266
166 166 165 168 174 182 187 189 187 186 184 184 186 190 196 202 209 214 221 227 230 228 225 225 229 236 245 254 263 271 276 280 284 289 293 295 297 300 303 306 309 310 311 312 314 314 312 308 304 302 302 300 297 290 283 276 270 267 265 265 266 268 269 270 271 272 275 278 280 281 282 282 283 283 283 282 281 279 277 277 276 274 271 268 266
160 163 167 173 179 181 181 182 183 182 181 184 190 199 207 215 219 221 221 218 212 209 211 218 228 238 249 259 268 275 280 285 291 295 298 302 306 310 313 315 316 317 319 321 323 322 319 314 311 311 311 308 301 290 281 275 269 266 265 267 269 268 265 263 268 276 281 283 284 284 285 285 284 284 283 281 278 276 275 276 277 276 272 268 265
164 167 171 176 181 182 180 180 183 186 190 196 205 214 219 219 216 211 203 198 199 205 215 225 235 247 259 266 273 279 285 291 297 303 308 314 318 320 321 322 323 325 327 329 331 330 326 322 319 319 318 314 305 291 283 281 280 279 277 274 267 257 251 256 271 282 285 289 292 291 288 286 284 283 281 279 277 276 273 271 272 272 268 264 261
171 172 174 177 181 183 182 183 188 194 200 210 217 219 214 206 197 190 188 194 205 214 223 234 246 258 266 270 275 281 288 297 307 315 321 324 325 326 327 328 330 332 334 336 338 337 333 329 328 326 323 319 311 297 288 289 292 289 284 273 255 240 241 261 281 289 295 300 300 296 291 288 287 288 286 282 281 278 270 261 258 259 258 260 261
173 175 179 183 187 188 186 189 196 204 210 214 213 207 197 186 182 185 195 205 213 219 227 241 252 258 262 265 271 283 296 311 323 328 329 329 329 331 332 334 336 338 340 342 344 342 339 336 336 333 328 320 310 297 293 300 301 294 286 269 243 233 250 280 291 298 306 310 307 300 295 293 292 291 289 283 277 271 259 249 245 243 242 255 268
173 177 182 188 192 192 193 197 203 206 207 204 198 190 184 183 187 196 205 209 212 216 227 239 243 243 245 253 275 303 319 330 336 339 338 337 336 336 337 339 341 343 344 346 348 347 345 344 343 339 332 320 307 297 300 308 307 297 286 268 243 241 273 292 298 307 315 314 306 292 282 281 278 277 278 279 279 270 253 240 238 235 225 216 206
181 185 190 193 195 196 199 202 203 201 197 190 185 183 185 190 198 204 205 204 203 208 221 228 228 228 235 264 312 328 333 340 346 348 346 344 343 342 342 343 344 346 347 349 350 351 351 350 347 344 338 326 312 305 304 307 301 281 256 247 249 265 284 291 300 311 314 308 292 264 256 269 278 281 282 296 312 292 244 226 227 227 212 190 172
191 195 198 199 200 201 203 202 199 195 188 183 184 189 193 200 206 206 201 197 198 208 218 221 221 225 250 296 322 331 338 346 350 351 351 350 349 348 346 346 346 347 349 350 352 354 355 353 351 349 344 333 318 312 310 307 294 266 246 244 251 268 280 291 302 309 308 299 274 242 247 265 296 305 27 64 55 59 113 148 158 161 157 151 149
200 203 204 204 202 202 200 197 193 190 186 186 191 196 202 208 208 203 198 197 203 212 219 221 223 234 262 290 314 330 341 348 350 352 353 353 352 351 350 349 349 349 349 351 353 356 357 356 355 354 352 342 322 307 305 305 296 273 253 248 252 263 278 297 307 306 295 203 127 110 95 86 78 92 105 93 81 79 93 106 111 115 121 126 130
200 201 201 200 198 197 195 193 191 190 190 194 199 204 208 210 207 202 199 202 209 217 223 226 229 241 260 281 306 326 338 345 348 350 352 353 354 354 353 352 351 350 350 351 353 356 358 359 359 358 356 352 335 306 299 303 303 282 248 237 247 260 280 304 310 291 178 139 120 103 92 88 89 103 113 109 104 99 97 98 102 108 115 123 131
190 191 191 192 194 195 194 194 195 196 197 201 206 209 211 210 207 204 205 209 215 223 228 231 235 244 258 276 300 320 333 341 345 348 350 352 354 355 355 354 354 352 351 351 353 355 358 0 1 0 359 357 347 313 303 308 307 282 235 227 239 250 276 308 301 173 146 131 115 102 96 94 98 108 118 121 120 117 109 100 97 99 103 111 124
173 181 185 189 192 195 197 199 201 202 203 206 209 211 212 211 210 210 213 217 222 228 233 237 241 247 256 274 296 314 326 335 341 345 347 350 353 355 355 355 355 354 353 352 353 354 357 0 2 2 1 360 354 317 304 312 301 257 223 217 223 228 242 246 170 155 142 129 117 110 105 100 98 106 121 131 133 130 122 112 105 104 106 111 124
156 174 186 192 196 200 203 207 210 211 211 212 213 213 214 215 217 220 222 225 228 233 237 241 245 250 258 272 290 306 319 329 336 340 344 347 351 353 354 355 355 355 354 353 353 354 356 359 2 3 2 1 358 337 303 300 281 240 216 204 205 210 205 176 166 159 149 140 135 129 121 114 107 108 121 136 144 145 135 120 108 107 112 119 134
159 168 180 192 201 207 211 214 218 219 220 220 220 219 220 222 226 229 232 234 236 239 242 245 248 252 259 269 282 298 312 322 329 334 340 345 348 350 352 353 354 354 354 353 352 354 355 357 1 3 4 3 1 351 321 285 262 236 215 204 202 201 188 175 173 169 163 160 158 150 137 132 132 131 130 132 132 123 110 100 95 100 109 114 129
Height
5717 5717 5718 5718 5718 5719 5719 5719 5719 5720 5721 5722 5722 5722 5722 5722 5723 5723 5723 5724 5724 5725 5725 5726 5726 5726 5726 5726 5726 5726 5726 5726 5726 5727 5727 5726 5727 5727 5727 5728 5728 5728 5729 5729 5730 5730 5731 5732 5732 5732 5733 5734 5735 5736 5736 5737 5738 5739 5740 5741 5742 5743 5743 5743 5744 5743 5743 5743 5744 5744 5744 5745 5745 5745 5745 5745 5746 5747 5747 5747 5748 5749 5750 5751 5752
5713 5714 5714 5714 5715 5715 5715 5716 5716 5716 5717 5717 5718 5718 5718 5718 5719 5720 5720 5721 5721 5722 5723 5723 5723 5723 5723 5723 5723 5723 5723 5723 5723 5723 5723 5723 5724 5724 5724 5724 5725 5725 5726 5726 5727 5727 5728 5728 5729 5729 5730 5730 5731 5732 5733 5733 5734 5735 5736 5736 5738 5739 5739 5740 5740 5740 5739 5739 5740 5740 5740 5741 5741 5741 5742 5742 5742 5742 5742 5742 5743 5744 5745 5746 5747
5709 5710 5710 5710 5711 5712 5712 5712 5713 5713 5713 5714 5714 5714 5714 5714 5714 5715 5716 5717 5718 5719 5720 5720 5720 5720 5720 5720 5720 5720 5720 5720 5720 5720 5720 5720 5720 5721 5721 5721 5721 5722 5722 5723 5723 5724 5724 5725 5725 5726 5726 5727 5727 5728 5729 5729 5730 5731 5731 5732 5733 5734 5735 5736 5736 5736 5736 5735 5735 5736 5736 5736 5736 5737 5737 5738 5738 5739 5739 5739 5739 5739 5739 5740 5741
5705 5706 5706 5707 5707 5708 5708 5708 5709 5709 5710 5710 5710 5710 5710 5710 5711 5711 5712 5713 5714 5715 5716 5716 5717 5717 5717 5717 5717 5717 5717 5717 5717 5717 5716 5717 5717 5717 5717 5717 5718 5718 5718 5719 5719 5720 5720 5721 5721 5722 5723 5723 5723 5724 5725 5725 5726 5727 5727 5728 5729 5729 5730 5730 5731 5732 5732 5732 5731 5731 5731 5731 5732 5732 5732 5733 5733 5734 5734 5735 5735 5735 5735 5735 5735
5700 5701 5701 5702 5703 5704 5704 5704 5704 5705 5706 5706 5706 5706 5706 5707 5707 5707 5708 5709 5709 5710 5711 5712 5712 5713 5713 5713 5713 5713 5713 5714 5714 5713 5713 5713 5713 5714 5714 5714 5714 5714 5715 5715 5715 5716 5716 5716 5717 5717 5718 5718 5719 5719 5720 5721 5721 5722 5723 5723 5724 5724 5725 5725 5726 5727 5727 5727 5727 5727 5727 5727 5727 5727 5727 5727 5728 5728 5729 5729 5730 5730 5731 5731 5731
5695 5696 5696 5696 5697 5698 5699 5700 5700 5700 5701 5702 5702 5702 5702 5702 5703 5703 5703 5704 5705 5705 5706 5707 5708 5708 5708 5709 5709 5710 5710 5710 5710 5709 5709 5709 5709 5709 5710 5710 5710 5710 5711 5711 5711 5712 5712 5712 5712 5712 5713 5713 5713 5714 5714 5715 5716 5717 5717 5718 5719 5719 5720 5720 5720 5721 5722 5722 5723 5723 5722 5722 5722 5722 5722 5722 5723 5723 5723 5724 5724 5725 5725 5725 5726
5691 5691 5690 5691 5692 5693 5694 5695 5695 5695 5696 5697 5697 5697 5698 5698 5698 5699 5699 5699 5700 5701 5701 5702 5703 5703 5704 5704 5705 5705 5705 5705 5705 5705 5704 5705 5705 5704 5705 5705 5705 5705 5706 5706 5706 5707 5707 5707 5708 5708 5708 5708 5708 5709 5709 5709 5710 5710 5711 5712 5713 5714 5715 5715 5716 5716 5716 5717 5717 5717 5718 5718 5718 5718 5717 5717 5718 5718 5718 5719 5719 5719 5719 5719 5719
5687 5686 5686 5687 5687 5688 5689 5690 5690 5691 5691 5691 5692 5693 5693 5694 5694 5694 5694 5694 5695 5695 5697 5697 5697 5697 5698 5699 5699 5699 5700 5700 5700 5699 5699 5699 5699 5700 5700 5700 5700 5701 5700 5701 5701 5701 5701 5702 5702 5703 5703 5703 5703 5703 5704 5704 5704 5705 5705 5705 5706 5707 5708 5709 5710 5711 5711 5712 5712 5712 5712 5713 5713 5714 5713 5713 5713 5713 5713 5714 5714 5714 5713 5713 5713
5680 5680 5681 5681 5682 5682 5683 5684 5684 5685 5686 5686 5687 5688 5689 5689 5690 5690 5690 5690 5690 5691 5692 5693 5692 5692 5693 5693 5693 5694 5694 5694 5694 5694 5694 5694 5694 5695 5695 5695 5696 5696 5696 5696 5696 5696 5696 5696 5696 5697 5697 5697 5698 5698 5698 5699 5699 5700 5699 5700 5700 5701 5701 5702 5703 5704 5705 5706 5707 5707 5707 5708 5708 5708 5708 5708 5708 5709 5708 5708 5708 5709 5708 5708 5708
5674 5674 5675 5675 5676 5676 5677 5678 5678 5679 5680 5681 5682 5683 5684 5685 5685 5685 5685 5685 5685 5686 5687 5687 5687 5687 5688 5688 5688 5688 5688 5688 5689 5688 5688 5688 5689 5689 5690 5690 5691 5691 5691 5691 5690 5690 5691 5690 5691 5691 5690 5691 5691 5692 5692 5693 5693 5694 5694 5694 5694 5695 5696 5696 5697 5698 5699 5701 5702 5702 5703 5703 5703 5702 5703 5703 5703 5703 5703 5703 5703 5703 5703 5703 5703
5668 5668 5668 5669 5669 5670 5670 5671 5672 5673 5674 5676 5676 5678 5679 5680 5680 5681 5681 5681 5681 5681 5681 5681 5681 5682 5683 5682 5683 5683 5684 5683 5683 5682 5682 5682 5682 5683 5684 5685 5685 5685 5685 5685 5685 5685 5685 5684 5685 5685 5684 5684 5685 5685 5686 5686 5687 5688 5688 5688 5688 5688 5689 5690 5691 5692 5693 5695 5696 5697 5697 5698 5697 5697 5697 5697 5697 5696 5697 5697 5697 5697 5697 5697 5697
5660 5661 5661 5662 5663 5663 5664 5665 5666 5667 5668 5670 5671 5672 5673 5674 5675 5675 5676 5676 5676 5676 5676 5676 5676 5677 5676 5676 5677 5679 5678 5677 5677 5677 5676 5676 5676 5676 5678 5679 5679 5679 5679 5679 5679 5679 5679 5678 5678 5678 5678 5678 5678 5678 5679 5680 5681 5681 5682 5682 5682 5682 5683 5684 5685 5685 5686 5688 5689 5690 5691 5691 5691 5691 5691 5691 5691 5690 5690 5690 5690 5691 5691 5691 5690
5653 5653 5654 5655 5655 5657 5658 5659 5660 5661 5662 5663 5665 5666 5667 5668 5668 5669 5670 5670 5670 5671 5671 5670 5670 5671 5671 5670 5672 5673 5672 5670 5670 5671 5670 5670 5670 5670 5671 5672 5672 5673 5673 5673 5673 5673 5673 5673 5672 5672 5672 5672 5672 5672 5672 5673 5674 5675 5675 5676 5676 5676 5677 5677 5678 5679 5679 5680 5682 5683 5684 5683 5684 5684 5684 5684 5684 5684 5684 5683 5683 5683 5684 5684 5684
5645 5646 5646 5647 5648 5649 5650 5651 5653 5654 5655 5657 5658 5659 5660 5661 5661 5662 5663 5663 5663 5664 5664 5664 5664 5665 5665 5664 5665 5666 5666 5664 5664 5665 5664 5664 5664 5665 5665 5666 5666 5666 5666 5667 5667 5667 5667 5667 5666 5665 5665 5666 5666 5666 5666 5666 5666 5667 5668 5669 5670 5670 5670 5671 5671 5672 5673 5673 5674 5676 5676 5676 5677 5677 5677 5677 5677 5677 5677 5677 5676 5676 5676 5676 5677
5637 5638 5638 5639 5641 5642 5643 5644 5645 5646 5648 5649 5650 5651 5652 5653 5654 5655 5655 5656 5656 5657 5657 5657 5657 5657 5658 5657 5657 5659 5659 5658 5658 5658 5658 5658 5658 5659 5659 5660 5660 5660 5660 5660 5660 5660 5661 5660 5660 5659 5659 5659 5659 5659 5659 5659 5659 5660 5661 5662 5663 5663 5664 5664 5664 5665 5665 5666 5666 5667 5668 5668 5669 5669 5669 5668 5669 5669 5669 5669 5669 5669 5668 5669 5669
5629 5630 5631 5632 5634 5635 5636 5637 5638 5639 5640 5641 5643 5644 5645 5645 5646 5647 5648 5648 5649 5649 5650 5650 5649 5649 5650 5650 5649 5650 5651 5651 5652 5652 5652 5652 5653 5653 5653 5653 5653 5653 5653 5653 5653 5654 5654 5654 5653 5653 5653 5653 5653 5653 5652 5652 5652 5653 5654 5655 5656 5656 5657 5657 5657 5657 5657 5657 5658 5659 5659 5660 5660 5660 5660 5660 5660 5660 5659 5661 5661 5660 5660 5661 5661
5621 5622 5624 5625 5626 5627 5628 5629 5631 5632 5633 5634 5635 5637 5637 5638 5638 5639 5640 5641 5642 5642 5642 5642 5642 5642 5642 5642 5642 5642 5643 5644 5645 5645 5645 5646 5647 5647 5646 5646 5646 5646 5646 5646 5646 5646 5647 5647 5646 5646 5646 5646 5646 5645 5645 5645 5645 5646 5647 5648 5648 5649 5650 5650 5649 5649 5649 5649 5650 5650 5650 5651 5651 5651 5651 5651 5651 5650 5650 5652 5651 5650 5651 5652 5652
5613 5615 5616 5617 5618 5619 5621 5622 5623 5624 5626 5627 5628 5629 5630 5631 5631 5632 5632 5633 5634 5635 5635 5635 5635 5635 5635 5635 5635 5635 5636 5636 5637 5637 5638 5639 5639 5639 5639 5639 5639 5639 5638 5638 5639 5639 5639 5639 5639 5639 5639 5639 5639 5638 5638 5637 5638 5638 5639 5640 5640 5641 5641 5641 5641 5641 5642 5642 5642 5641 5641 5641 5641 5642 5642 5641 5641 5640 5640 5643 5641 5640 5642 5643 5642
5606 5607 5609 5610 5611 5612 5613 5615 5616 5617 5618 5619 5620 5621 5622 5623 5623 5624 5625 5625 5626 5627 5628 5628 5628 5628 5628 5628 5628 5628 5629 5630 5630 5631 5631 5632 5632 5632 5632 5632 5632 5631 5631 5631 5631 5631 5631 5631 5631 5631 5632 5632 5631 5631 5630 5630 5630 5630 5631 5631 5632 5633 5632 5632 5632 5633 5633 5634 5634 5633 5633 5632 5631 5632 5632 5631 5632 5630 5630 5632 5630 5630 5632 5633 5631
5598 5600 5602 5602 5603 5604 5605 5607 5608 5610 5611 5612 5613 5614 5614 5614 5615 5616 5617 5617 5618 5619 5620 5620 5621 5621 5622 5622 5621 5622 5623 5624 5625 5625 5625 5625 5624 5624 5624 5624 5624 5624 5624 5624 5624 5623 5623 5622 5622 5623 5624 5624 5624 5622 5622 5622 5622 5622 5622 5623 5624 5624 5623 5624 5624 5624 5624 5625 5624 5624 5624 5623 5622 5622 5622 5622 5622 5622 5621 5620 5619 5618 5620 5621 5621
5591 5593 5594 5595 5596 5597 5598 5599 5600 5602 5603 5604 5605 5606 5606 5607 5607 5608 5609 5610 5611 5611 5612 5613 5613 5614 5614 5615 5615 5615 5616 5617 5618 5618 5618 5618 5617 5617 5617 5617 5617 5617 5617 5617 5616 5616 5615 5615 5614 5614 5615 5616 5615 5614 5614 5614 5613 5613 5614 5614 5614 5614 5615 5615 5616 5615 5615 5615 5615 5615 5614 5614 5614 5614 5613 5613 5612 5612 5611 5611 5609 5608 5608 5608 5609
5583 5585 5586 5587 5588 5589 5590 5591 5593 5594 5595 5595 5596 5597 5598 5599 5600 5601 5602 5603 5604 5604 5605 5606 5606 5606 5607 5608 5608 5609 5610 5610 5611 5611 5611 5611 5611 5610 5610 5610 5609 5609 5609 5609 5609 5608 5608 5607 5607 5606 5606 5606 5606 5605 5605 5605 5605 5605 5605 5605 5605 5605 5605 5606 5606 5606 5606 5606 5605 5605 5605 5604 5604 5604 5603 5603 5602 5601 5601 5600 5600 5599 5598 5597 5597
5575 5577 5578 5579 5581 5582 5582 5583 5584 5585 5586 5586 5588 5589 5591 5592 5593 5594 5594 5595 5596 5597 5598 5598 5599 5600 5600 5601 5602 5603 5603 5603 5604 5604 5604 5604 5604 5603 5603 5602 5602 5602 5602 5601 5601 5600 5600 5599 5598 5598 5597 5597 5596 5597 5596 5596 5596 5596 5596 5596 5596 5596 5596 5596 5597 5596 5596 5596 5596 5596 5595 5594 5594 5593 5592 5592 5591 5590 5590 5589 5589 5588 5587 5586 5585
5567 5569 5570 5571 5572 5574 5574 5575 5576 5577 5577 5578 5580 5582 5584 5585 5586 5586 5586 5588 5589 5590 5591 5592 5593 5594 5594 5594 5595 5596 5596 5597 5597 5597 5597 5597 5597 5597 5596 5596 5596 5595 5594 5594 5593 5592 5591 5590 5589 5589 5588 5587 5587 5587 5587 5587 5587 5587 5587 5587 5586 5586 5586 5586 5586 5586 5586 5586 5586 5586 5585 5584 5583 5583 5582 5581 5580 5579 5579 5578 5577 5576 5575 5575 5574
5559 5560 5562 5563 5564 5565 5567 5567 5568 5569 5570 5571 5573 5575 5576 5577 5577 5578 5579 5581 5582 5583 5584 5586 5587 5587 5587 5588 5589 5590 5590 5590 5591 5590 5590 5591 5591 5590 5590 5590 5589 5588 5587 5586 5585 5584 5583 5581 5580 5579 5578 5577 5577 5577 5577 5577 5577 5577 5577 5577 5577 5577 5577 5577 5577 5577 5577 5577 5576 5576 5575 5574 5573 5572 5571 5570 5569 5568 5567 5567 5566 5565 5564 5563 5562
5551 5552 5553 5555 5556 5558 5559 5559 5559 5561 5562 5563 5565 5566 5567 5568 5569 5570 5572 5573 5574 5576 5578 5579 5581 5582 5583 5584 5584 5584 5584 5584 5585 5585 5585 5585 5585 5585 5584 5583 5582 5581 5580 5578 5577 5575 5574 5572 5571 5570 5569 5568 5567 5567 5568 5568 5568 5568 5568 5568 5568 5568 5568 5568 5567 5567 5567 5567 5566 5566 5565 5563 5562 5560 5560 5559 5558 5557 5556 5554 5554 5553 5552 5551 5551
5544 5544 5545 5547 5548 5549 5549 5549 5551 5553 5554 5555 5556 5558 5559 5560 5561 5563 5564 5565 5567 5569 5571 5573 5576 5578 5579 5580 5579 5579 5579 5579 5579 5580 5580 5580 5579 5579 5578 5577 5575 5574 5572 5570 5568 5567 5565 5564 5563 5561 5560 5559 5558 5558 5559 5559 5559 5559 5559 5559 5559 5558 5558 5558 5558 5558 5557 5556 5556 5555 5554 5552 5551 5550 5549 5548 5547 5546 5543 5542 5541 5541 5540 5540 5540
5536 5536 5537 5538 5539 5539 5540 5541 5543 5545 5545 5546 5548 5549 5551 5552 5553 5555 5557 5558 5560 5563 5565 5567 5570 5573 5574 5575 5574 5574 5574 5574 5575 5575 5575 5574 5574 5573 5571 5570 5568 5566 5564 5563 5561 5560 5558 5557 5555 5554 5552 5551 5551 5550 5550 5550 5550 5551 5550 5550 5549 5549 5549 5548 5548 5547 5547 5546 5545 5544 5543 5541 5540 5539 5537 5536 5535 5534 5532 5531 5531 5531 5531 5531 5531
5528 5528 5529 5529 5530 5531 5532 5533 5535 5537 5538 5539 5540 5542 5543 5545 5547 5549 5550 5552 5554 5557 5559 5563 5566 5569 5569 5569 5569 5569 5569 5570 5570 5570 5570 5569 5568 5567 5565 5563 5562 5560 5558 5556 5555 5553 5551 5549 5548 5546 5545 5544 5543 5542 5542 5542 5542 5541 5541 5540 5540 5540 5539 5539 5538 5537 5536 5536 5535 5534 5532 5530 5529 5527 5526 5525 5524 5523 5522 5522 5522 5522 5522 5522 5523
5519 5520 5521 5522 5522 5523 5525 5527 5528 5530 5531 5533 5534 5536 5537 5538 5541 5543 5544 5546 5549 5551 5554 5558 5562 5563 5564 5564 5565 5565 5565 5565 5565 5565 5564 5563 5562 5561 5559 5558 5556 5555 5552 5550 5549 5547 5545 5543 5541 5540 5538 5537 5536 5535 5534 5533 5533 5533 5532 5531 5531 5530 5530 5529 5528 5527 5527 5526 5524 5523 5521 5520 5518 5517 5515 5515 5515 5514 5514 5514 5514 5514 5514 5515 5515
5511 5512 5514 5515 5516 5517 5519 5522 5524 5525 5526 5528 5529 5530 5532 5533 5535 5537 5539 5542 5545 5548 5551 5554 5557 5558 5559 5560 5561 5560 5560 5560 5560 5559 5559 5558 5557 5556 5555 5553 5551 5549 5547 5545 5543 5541 5539 5536 5534 5533 5531 5530 5528 5527 5526 5525 5525 5524 5523 5522 5521 5521 5520 5519 5518 5517 5517 5516 5514 5513 5511 5510 5509 5508 5507 5506 5506 5506 5506 5506 5507 5507 5506 5506 5507
5505 5506 5508 5510 5512 5513 5516 5518 5520 5521 5522 5524 5525 5526 5527 5529 5532 5534 5537 5540 5543 5545 5548 5550 5552 5554 5555 5556 5556 5556 5555 5555 5555 5555 5555 5554 5553 5552 5551 5549 5547 5544 5542 5540 5537 5535 5532 5530 5528 5526 5524 5523 5521 5520 5518 5517 5516 5515 5514 5513 5512 5511 5511 5510 5509 5508 5507 5506 5505 5504 5503 5502 5501 5500 5499 5499 5499 5499 5499 5499 5499 5499 5498 5498 5498
5500 5502 5504 5506 5508 5510 5513 5515 5517 5518 5520 5521 5522 5523 5525 5527 5530 5532 5535 5538 5540 5543 5545 5547 5549 5550 5551 5551 5551 5551 5551 5551 5552 5551 5551 5550 5549 5548 5546 5544 5542 5539 5537 5535 5532 5530 5527 5524 5522 5520 5517 5515 5514 5512 5510 5509 5508 5507 5506 5505 5504 5503 5502 5501 5501 5500 5499 5498 5497 5496 5495 5494 5494 5493 5493 5492 5492 5491 5491 5491 5491 5491 5491 5491 5491
5496 5498 5500 5503 5505 5507 5510 5513 5515 5516 5517 5518 5519 5521 5523 5525 5528 5531 5534 5537 5539 5541 5543 5545 5546 5546 5547 5547 5547 5548 5548 5549 5549 5548 5548 5547 5545 5544 5542 5540 5538 5535 5533 5530 5528 5525 5522 5519 5516 5513 5511 5508 5506 5504 5502 5501 5499 5498 5497 5496 5496 5495 5495 5494 5494 5493 5492 5492 5491 5490 5489 5488 5487 5487 5486 5485 5485 5485 5484 5484 5484 5483 5483 5483 5483
5492 5495 5497 5500 5503 5506 5509 5511 5513 5514 5515 5516 5518 5519 5521 5524 5527 5530 5533 5535 5537 5539 5541 5542 5542 5543 5544 5544 5545 5545 5546 5546 5545 5545 5544 5543 5542 5540 5539 5537 5534 5532 5529 5526 5523 5520 5516 5513 5510 5507 5504 5501 5498 5496 5494 5493 5491 5490 5489 5489 5488 5488 5488 5488 5488 5487 5487 5486 5484 5483 5483 5482 5481 5481 5480 5479 5479 5478 5478 5477 5477 5477 5477 5476 5476
5490 5492 5495 5498 5501 5505 5508 5510 5512 5513 5514 5515 5517 5519 5521 5523 5527 5530 5532 5534 5535 5537 5538 5539 5540 5541 5541 5542 5542 5543 5543 5543 5543 5542 5541 5540 5539 5537 5536 5533 5531 5528 5525 5522 5518 5515 5511 5507 5503 5500 5496 5493 5491 5489 5487 5486 5484 5483 5483 5482 5482 5483 5483 5483 5483 5482 5481 5480 5479 5478 5478 5477 5476 5475 5474 5474 5473 5472 5472 5471 5471 5470 5470 5470 5470
5488 5491 5494 5497 5501 5504 5506 5508 5510 5512 5513 5514 5516 5518 5521 5523 5526 5528 5530 5532 5533 5535 5536 5537 5538 5538 5539 5540 5540 5541 5541 5540 5540 5539 5538 5537 5536 5535 5532 5530 5527 5524 5521 5518 5514 5510 5505 5500 5496 5493 5490 5487 5484 5482 5481 5479 5478 5477 5477 5477 5478 5478 5479 5478 5478 5478 5477 5476 5475 5474 5473 5472 5471 5470 5469 5469 5468 5467 5466 5465 5464 5464 5464 5463 5463
5489 5491 5494 5498 5501 5503 5505 5507 5509 5511 5512 5514 5516 5519 5521 5523 5525 5527 5528 5530 5531 5532 5533 5534 5536 5536 5537 5538 5538 5538 5538 5538 5538 5537 5536 5535 5533 5531 5529 5526 5524 5520 5517 5513 5509 5504 5499 5495 5490 5487 5484 5481 5478 5476 5475 5474 5473 5473 5473 5473 5474 5474 5475 5474 5474 5474 5473 5473 5472 5470 5469 5468 5467 5466 5465 5464 5463 5462 5460 5460 5459 5458 5458 5457 5457
5490 5492 5495 5498 5501 5503 5505 5507 5509 5511 5512 5514 5517 5519 5521 5522 5524 5525 5526 5528 5529 5530 5532 5533 5534 5535 5536 5536 5536 5536 5536 5536 5535 5535 5534 5532 5530 5528 5526 5523 5520 5517 5513 5509 5504 5499 5494 5490 5485 5482 5478 5476 5473 5472 5471 5471 5470 5470 5470 5470 5471 5471 5471 5471 5471 5471 5470 5469 5468 5467 5466 5464 5463 5462 5460 5459 5458 5457 5456 5455 5455 5454 5453 5453 5452
5492 5494 5496 5499 5501 5503 5505 5507 5509 5511 5513 5514 5516 5518 5520 5521 5522 5523 5525 5526 5528 5529 5531 5532 5533 5533 5534 5534 5535 5535 5534 5534 5533 5532 5531 5529 5527 5525 5523 5520 5517 5513 5509 5505 5500 5495 5490 5485 5481 5477 5474 5472 5470 5469 5469 5468 5468 5467 5467 5467 5468 5468 5468 5469 5469 5468 5467 5466 5465 5463 5462 5460 5459 5457 5456 5455 5454 5453 5452 5452 5452 5451 5450 5450 5449
5493 5495 5497 5499 5501 5503 5505 5507 5509 5511 5512 5514 5516 5517 5518 5520 5521 5522 5524 5526 5527 5528 5530 5531 5531 5532 5532 5533 5533 5533 5532 5532 5531 5530 5528 5526 5524 5522 5520 5517 5513 5510 5506 5501 5496 5491 5486 5482 5478 5474 5471 5468 5467 5467 5466 5466 5466 5465 5465 5465 5465 5466 5466 5467 5466 5465 5464 5463 5461 5460 5458 5456 5455 5454 5453 5452 5451 5450 5450 5450 5450 5450 5449 5447 5446
5493 5495 5498 5499 5501 5503 5505 5507 5509 5510 5512 5513 5515 5516 5517 5519 5520 5522 5524 5525 5526 5527 5528 5529 5530 5531 5531 5531 5532 5531 5531 5530 5528 5527 5526 5524 5522 5519 5517 5514 5510 5507 5503 5498 5493 5488 5483 5479 5475 5471 5468 5466 5466 5465 5465 5464 5464 5463 5463 5463 5463 5464 5464 5464 5464 5463 5461 5460 5458 5457 5455 5454 5453 5453 5452 5451 5450 5449 5448 5448 5449 5448 5447 5446 5445
5494 5496 5498 5499 5501 5503 5505 5507 5508 5510 5511 5513 5514 5515 5517 5518 5520 5522 5523 5524 5525 5526 5527 5528 5529 5529 5530 5530 5530 5530 5529 5527 5526 5525 5523 5521 5519 5516 5514 5511 5508 5504 5500 5496 5491 5486 5481 5477 5473 5469 5467 5465 5464 5464 5463 5463 5462 5462 5462 5462 5462 5462 5463 5462 5462 5461 5459 5458 5456 5455 5454 5454 5453 5452 5451 5450 5449 5448 5447 5447 5447 5447 5447 5446 5446
5495 5497 5498 5500 5502 5503 5505 5506 5508 5509 5511 5512 5513 5515 5516 5518 5520 5521 5522 5523 5524 5525 5526 5527 5528 5528 5528 5528 5528 5528 5526 5525 5524 5522 5521 5519 5516 5514 5511 5508 5505 5502 5498 5494 5490 5485 5480 5476 5472 5468 5465 5464 5463 5462 5462 5462 5461 5461 5461 5461 5461 5461 5461 5461 5460 5459 5458 5456 5455 5454 5454 5453 5452 5451 5450 5449 5448 5447 5446 5446 5447 5447 5446 5446 5446
5496 5498 5499 5500 5502 5503 5505 5506 5507 5508 5510 5511 5513 5514 5516 5517 5519 5520 5521 5522 5523 5524 5525 5526 5527 5527 5526 5526 5526 5525 5524 5523 5522 5520 5519 5516 5514 5512 5509 5506 5503 5500 5496 5492 5488 5484 5479 5475 5471 5467 5464 5462 5462 5461 5461 5460 5460 5460 5460 5460 5460 5460 5460 5460 5459 5458 5456 5455 5455 5454 5453 5453 5452 5451 5450 5449 5448 5447 5446 5446 5446 5446 5447 5447 5447
5496 5498 5499 5500 5501 5503 5504 5505 5506 5508 5509 5511 5512 5514 5515 5516 5517 5519 5520 5520 5522 5523 5524 5525 5525 5524 5524 5524 5524 5523 5522 5521 5520 5518 5516 5514 5512 5510 5507 5504 5501 5498 5495 5491 5487 5483 5479 5475 5471 5467 5464 5462 5461 5460 5460 5459 5459 5459 5458 5459 5459 5459 5459 5458 5458 5456 5455 5455 5455 5454 5453 5453 5452 5452 5451 5450 5450 5449 5449 5448 5448 5448 5448 5449 5450
5496 5497 5498 5499 5501 5502 5503 5504 5506 5507 5509 5510 5511 5513 5514 5515 5516 5517 5518 5519 5520 5522 5522 5523 5522 5523 5523 5522 5522 5521 5520 5519 5517 5516 5514 5513 5510 5508 5505 5503 5500 5497 5494 5490 5487 5483 5479 5475 5470 5466 5463 5461 5460 5459 5459 5458 5458 5457 5457 5458 5458 5458 5458 5457 5457 5456 5455 5455 5455 5455 5454 5453 5453 5453 5452 5452 5452 5452 5452 5451 5451 5451 5451 5452 5452
5496 5497 5498 5499 5500 5501 5503 5504 5505 5507 5508 5509 5510 5512 5513 5514 5515 5516 5517 5518 5519 5520 5520 5520 5521 5521 5521 5520 5519 5518 5517 5516 5515 5514 5513 5511 5509 5507 5504 5502 5499 5496 5493 5490 5486 5483 5479 5475 5471 5467 5464 5461 5460 5459 5458 5457 5457 5456 5457 5457 5457 5457 5457 5457 5456 5456 5456 5456 5456 5456 5455 5455 5454 5454 5454 5454 5454 5454 5454 5454 5454 5454 5454 5455 5455
5496 5497 5498 5499 5500 5502 5503 5504 5505 5506 5507 5508 5509 5510 5511 5512 5514 5514 5515 5516 5517 5518 5518 5519 5519 5519 5519 5518 5517 5516 5515 5514 5513 5512 5511 5509 5508 5506 5503 5501 5498 5495 5492 5489 5486 5483 5479 5475 5471 5468 5464 5461 5459 5458 5458 5457 5456 5456 5456 5456 5456 5457 5457 5457 5457 5457 5457 5457 5457 5457 5457 5456 5456 5456 5456 5456 5456 5456 5456 5456 5457 5457 5457 5458 5458
5497 5498 5499 5500 5501 5502 5503 5504 5505 5506 5506 5507 5508 5509 5510 5511 5512 5513 5514 5515 5515 5516 5516 5516 5517 5517 5516 5516 5515 5514 5513 5513 5512 5510 5509 5508 5506 5504 5502 5500 5497 5495 5492 5489 5486 5483 5479 5476 5472 5469 5465 5462 5459 5458 5457 5457 5456 5456 5456 5456 5456 5456 5456 5457 5457 5457 5458 5458 5457 5457 5457 5458 5458 5458 5458 5458 5458 5458 5457 5458 5458 5459 5460 5460 5461
5497 5498 5499 5500 5500 5501 5502 5503 5504 5505 5506 5506 5507 5508 5509 5509 5510 5511 5512 5513 5513 5514 5514 5514 5514 5514 5514 5513 5513 5512 5511 5511 5510 5509 5508 5506 5505 5503 5501 5499 5497 5494 5491 5489 5486 5483 5480 5476 5473 5470 5466 5463 5460 5458 5457 5456 5456 5456 5456 5456 5456 5456 5456 5456 5457 5458 5458 5458 5458 5458 5458 5458 5459 5459 5459 5459 5459 5459 5459 5460 5460 5460 5461 5461 5462